Probability
19 19 14 7 4 3 2 1 1 0 0 1 1 3 6 6 4 4 5 2 0 0 0 0 0 0 0 0 0 0 0 0 0 0 0 0 0 0
23 21 17 10 7 5 4 3 2 1 0 0 1 3 5 4 4 5 5 3 0 0 0 0 0 0 0 0 0 0 0 0 0 0 0 0 0 0
21 20 17 13 11 9 6 5 4 3 2 1 2 5 8 10 9 8 6 4 1 0 0 0 0 0 0 0 0 0 0 0 0 0 0 0 0 0
17 16 13 11 11 10 9 6 5 4 2 1 3 8 14 19 18 13 6 3 2 0 0 0 0 0 0 0 0 0 0 0 0 0 0 0 0 0
14 12 9 8 9 11 11 9 7 4 2 1 2 6 12 19 23 17 7 4 2 0 0 0 0 0 0 0 0 0 0 0 0 0 0 0 0 0
11 10 8 7 9 11 11 11 9 6 3 1 1 2 6 12 17 13 7 4 2 0 0 0 0 0 0 0 0 0 0 0 0 0 0 0 0 0
12 12 9 7 7 8 8 9 9 7 5 3 1 0 2 8 10 7 4 3 3 3 3 2 1 1 0 0 0 0 0 0 0 0 0 0 0 0
17 16 12 7 5 5 5 5 5 4 4 3 2 1 2 5 7 7 6 6 6 8 8 7 5 3 2 1 0 0 0 0 0 0 0 0 0 0
19 18 15 10 7 8 6 3 2 2 2 2 1 1 2 5 9 11 11 10 10 11 10 8 7 7 5 2 0 0 0 0 0 0 0 0 0 0
16 16 15 12 9 9 8 6 4 3 1 0 0 0 1 4 8 10 11 10 10 11 9 7 7 7 6 3 1 0 0 0 0 0 0 0 0 0
11 11 11 10 9 7 7 8 8 6 3 1 0 0 0 1 3 5 7 7 7 8 8 7 5 4 4 3 1 0 0 0 0 0 0 0 0 0
7 7 6 6 5 3 5 8 10 8 7 5 2 2 2 1 1 1 2 3 4 5 7 7 5 2 3 3 3 2 1 0 0 0 0 0 0 0
6 5 4 3 2 1 3 6 6 6 7 6 5 5 5 4 2 1 1 2 2 3 5 7 5 3 3 3 4 4 2 1 1 0 0 0 0 0
5 3 2 1 0 0 1 2 2 2 4 5 5 6 6 6 4 3 2 1 1 1 3 5 4 4 3 2 3 3 2 2 2 1 0 0 0 0
3 1 0 0 0 0 0 0 0 0 1 2 4 4 5 6 6 4 2 1 0 0 1 2 2 3 3 2 2 2 1 1 1 0 0 0 0 0
1 0 0 0 0 0 1 1 1 1 1 1 3 3 4 6 6 4 2 1 0 0 0 1 2 3 3 3 2 2 2 1 0 0 0 0 0 0
0 0 0 1 0 0 1 2 2 2 2 2 3 3 3 4 4 3 2 1 0 0 0 1 2 3 3 2 2 2 2 1 0 0 0 0 0 0
1 1 1 1 1 0 1 1 2 2 2 2 2 2 2 2 2 1 1 0 0 0 0 1 2 3 3 2 2 2 3 2 1 0 0 0 0 0
1 3 3 2 2 1 0 1 2 3 3 2 2 1 1 1 1 0 0 0 0 0 0 1 2 2 2 1 1 2 2 2 1 0 0 0 0 0
2 3 3 3 2 1 0 1 2 2 2 2 2 1 0 0 0 0 0 0 0 0 0 1 1 1 1 0 0 0 1 1 0 0 0 0 0 0
2 2 2 2 1 1 0 0 1 1 1 1 1 1 0 0 0 0 0 0 0 0 0 0 0 0 0 0 0 0 0 0 0 0 0 0 0 0
2 1 1 1 0 0 0 0 0 0 0 0 0 0 0 0 0 0 0 0 0 0 0 0 0 0 0 0 0 0 0 0 0 0 0 0 0 0
1 0 0 0 0 0 0 0 0 0 0 0 0 0 0 0 0 0 0 0 0 0 0 0 0 0 0 0 0 0 0 0 0 0 0 0 0 0
Wind_Speed
6 6 5 3 3 3 2 2 2 3 3 3 2 4 4 3 9 7 6 13 14 14 14 13 12 12 11 10 10 10 10 9 9 9 9 9 9 10
5 5 5 4 3 3 3 3 3 3 3 2 2 3 3 4 8 6 5 12 15 15 14 14 13 12 12 11 11 10 10 10 10 9 9 9 9 9
7 6 6 5 3 3 3 3 3 2 3 3 1 1 3 2 4 4 4 5 8 14 15 15 15 14 13 12 11 11 10 10 10 9 9 9 9 9
7 6 7 6 6 4 3 4 3 3 3 3 2 1 2 3 4 4 5 6 5 12 17 16 15 14 14 13 12 12 11 11 10 10 9 9 9 9
6 7 7 7 7 6 5 4 3 4 3 3 3 2 2 3 3 4 5 4 6 7 14 15 15 14 14 13 13 12 11 11 10 10 9 9 9 9
6 7 7 7 7 7 6 5 4 3 3 3 3 3 3 3 3 3 4 3 4 4 5 8 12 15 14 14 13 13 12 12 11 11 10 9 9 9
6 6 7 7 8 7 5 4 5 4 3 3 3 3 3 2 3 3 3 3 3 4 2 3 5 6 8 11 13 13 13 13 12 11 10 10 9 9
6 6 6 7 7 8 8 6 5 5 4 3 3 3 3 2 2 2 2 2 3 2 1 3 2 3 5 5 10 13 13 12 11 10 10 9 10 10
5 5 7 7 7 6 6 7 7 8 7 4 4 3 2 2 1 2 3 3 3 2 1 3 2 3 3 3 8 12 12 11 11 10 10 10 10 10
4 5 5 4 4 4 4 5 5 5 6 5 4 4 3 1 2 3 3 3 3 3 2 3 3 3 4 1 4 8 10 10 10 10 10 10 10 11
3 3 4 4 4 4 4 3 3 3 5 6 5 4 2 1 1 1 2 2 4 3 2 3 3 3 2 2 3 6 9 10 10 11 11 11 11 9
2 2 2 3 4 5 4 3 3 3 2 2 3 3 2 2 3 3 2 3 3 2 2 2 2 1 2 2 1 1 3 7 9 10 11 11 10 5
1 1 1 4 4 4 3 2 3 2 2 2 2 2 2 2 2 3 2 3 3 3 1 1 1 1 2 2 1 1 2 2 3 5 9 11 10 7
0 1 2 3 4 3 2 1 2 2 1 1 1 1 2 2 3 3 3 3 3 3 2 1 1 1 2 3 3 2 2 2 2 3 3 5 8 10
1 3 3 3 3 1 0 1 1 1 1 1 2 2 2 2 1 2 2 2 2 3 3 2 2 2 2 3 3 3 3 3 3 2 2 2 3 3
1 1 2 2 1 0 1 1 1 1 1 1 1 1 1 1 1 0 1 1 2 2 3 3 3 3 3 4 4 4 3 3 3 3 3 3 3 3
2 1 1 1 1 1 1 1 1 0 1 1 1 1 1 1 1 0 0 1 1 1 2 2 3 3 5 4 4 4 3 3 3 3 3 4 4 3
3 2 2 2 2 1 1 1 1 1 1 1 1 1 1 1 1 1 1 1 2 2 2 2 2 2 3 3 3 3 3 3 3 3 3 3 4 3
4 4 3 3 3 3 3 3 3 2 2 2 1 1 1 1 1 1 2 2 2 2 2 2 2 2 3 4 2 1 2 3 3 3 3 3 4 3
5 5 5 4 4 4 4 4 3 3 3 3 2 2 2 2 2 2 1 2 2 3 2 2 1 1 3 4 4 4 4 3 3 3 3 3 3 3
6 6 6 5 5 5 5 4 4 4 4 3 3 3 3 2 2 2 2 3 3 2 2 2 2 3 3 3 3 3 3 3 4 3 3 3 4 3
6 6 5 6 5 5 5 5 5 5 5 4 4 4 3 3 3 3 3 3 2 2 3 2 2 2 2 3 4 4 4 4 4 6 7 6 3 4
6 5 6 6 6 5 5 5 6 6 6 6 5 5 5 4 3 3 3 3 3 4 4 4 3 3 3 3 4 4 5 4 3 3 3 5 7 8
Wind_Direction
216 213 220 239 232 232 231 221 216 235 244 226 200 193 180 151 160 185 183 195 200 204 208 212 215 218 223 228 232 236 238 240 243 248 252 256 259 262
211 213 210 226 230 223 236 234 225 221 243 243 220 192 174 176 172 191 198 192 202 206 210 213 216 218 221 225 229 232 234 237 241 245 248 250 253 257
213 214 210 220 233 229 229 233 232 226 238 259 243 173 172 177 167 202 191 189 202 210 211 212 214 216 218 222 226 230 232 234 236 239 242 245 249 253
215 219 213 214 215 231 237 236 227 221 223 243 252 216 200 191 181 205 217 217 210 208 209 211 212 214 216 218 222 225 228 230 233 237 240 244 248 253
217 220 218 218 216 220 226 232 230 232 210 217 242 234 218 209 192 216 240 244 243 221 205 210 214 215 217 218 221 224 227 229 233 236 239 243 248 252
219 220 218 217 216 217 225 225 228 234 228 222 236 240 230 216 193 209 239 237 245 252 209 202 210 216 219 219 221 222 224 226 229 233 237 241 245 250
226 224 222 219 214 210 219 214 221 223 226 224 228 231 228 209 209 216 234 239 240 236 227 207 197 208 219 224 225 224 224 224 226 230 234 238 242 247
221 225 228 217 212 211 212 214 211 219 224 229 235 235 235 221 203 218 240 249 256 246 244 261 217 211 219 209 209 213 217 219 222 226 231 237 243 248
224 223 231 228 204 201 204 213 220 222 214 218 239 249 256 251 230 241 253 262 258 270 265 263 259 257 248 227 197 203 210 213 217 223 230 237 244 250
232 228 227 228 225 201 202 209 215 215 206 207 220 239 252 266 253 246 248 260 260 257 235 254 260 259 268 230 204 197 198 203 212 220 228 236 245 253
237 248 236 210 198 198 202 214 218 220 212 207 204 204 197 224 268 281 262 253 261 257 235 232 247 254 260 243 222 209 205 210 218 226 233 239 246 255
219 231 231 195 184 183 194 202 221 232 242 217 188 204 215 230 222 219 240 254 260 264 271 252 252 262 276 260 242 222 224 231 235 240 242 245 248 249
206 189 174 163 163 167 180 201 226 249 243 220 197 195 207 213 220 216 219 233 245 249 286 313 281 273 262 288 296 266 243 240 237 249 245 246 245 232
19 71 86 117 133 148 172 233 249 255 241 223 236 235 230 223 221 217 209 209 217 241 282 297 271 284 286 289 292 298 294 274 254 250 245 241 243 241
48 74 87 104 110 125 207 272 265 242 230 231 235 242 246 238 223 203 198 203 232 247 251 231 227 256 264 272 281 289 293 286 275 269 267 261 253 248
160 96 98 99 110 37 84 152 204 272 266 254 271 274 270 258 242 228 221 226 242 257 250 234 226 230 248 257 264 274 276 281 296 293 285 276 270 259
157 161 142 114 120 117 101 97 121 198 261 265 264 272 289 296 301 324 315 290 273 281 288 267 246 237 238 245 257 263 272 279 284 291 295 288 281 274
103 87 69 56 47 34 32 52 68 9 310 291 305 321 327 337 347 1 1 337 318 317 316 317 316 305 286 270 238 266 280 284 290 289 286 287 289 293
71 64 58 50 39 31 27 30 31 21 2 8 16 13 3 355 354 350 346 333 318 313 312 315 324 325 313 307 306 267 283 287 294 296 292 290 292 295
55 55 50 43 40 31 26 22 18 20 18 10 8 10 358 352 344 331 322 316 310 307 305 309 319 312 297 296 296 291 260 260 274 284 293 295 293 290
50 48 44 39 37 33 26 20 19 17 12 1 5 3 352 345 342 335 330 324 307 306 314 318 311 293 283 290 293 297 291 260 263 267 283 291 293 285
48 48 45 46 44 36 30 24 21 19 13 6 7 3 357 355 349 344 340 333 320 321 325 316 307 303 297 293 294 297 302 302 288 277 266 257 270 281
50 46 43 42 43 39 33 27 25 22 17 8 3 1 1 356 345 343 342 343 344 341 333 321 314 304 294 286 287 292 299 301 299 299 293 280 261 255